Time,TemperatureF,DewpointF,PressureIn,WindDirection,WindDirectionDegrees,WindSpeedMPH,WindSpeedGustMPH,Humidity,HourlyPrecipIn,Conditions,Clouds,dailyrainin,SoftwareType,DateUTC
2013-01-25 00:03:00,52.0,48.0,30.29,North,0,0.0,0.0,87,99.99,,,-99.99,,2013-01-25 05:03:00,
2013-01-25 00:12:00,51.0,47.0,30.29,North,0,0.0,0.0,87,99.99,,,-99.99,,2013-01-25 05:12:00,
2013-01-25 00:22:00,51.0,47.0,30.29,North,0,0.0,0.0,87,99.99,,,-99.99,,2013-01-25 05:22:00,
2013-01-25 00:32:00,50.0,47.0,30.29,North,0,0.0,0.0,89,99.99,,,-99.99,,2013-01-25 05:32:00,
2013-01-25 00:43:00,50.0,47.0,30.29,North,0,0.0,0.0,89,99.99,,,-99.99,,2013-01-25 05:43:00,
2013-01-25 00:52:00,50.0,47.0,30.29,North,0,0.0,0.0,90,99.99,,,-99.99,,2013-01-25 05:52:00,
2013-01-25 01:02:00,50.0,47.0,30.29,North,0,0.0,0.0,90,99.99,,,-99.99,,2013-01-25 06:02:00,
2013-01-25 01:11:00,50.0,47.0,30.29,North,0,0.0,0.0,90,99.99,,,-99.99,,2013-01-25 06:11:00,
2013-01-25 01:21:00,49.0,47.0,30.29,NNW,345,3.0,4.0,93,99.99,,,-99.99,,2013-01-25 06:21:00,
2013-01-25 01:32:00,51.0,51.0,30.29,North,352,5.0,7.0,100,99.99,,,-99.99,,2013-01-25 06:32:00,
2013-01-25 01:42:00,52.0,52.0,30.29,NNW,339,5.0,7.0,100,99.99,,,-99.99,,2013-01-25 06:42:00,
2013-01-25 01:52:00,52.0,52.0,30.29,NNW,339,5.0,7.0,100,99.99,,,-99.99,,2013-01-25 06:52:00,
2013-01-25 02:02:00,52.0,51.0,30.29,North,353,3.0,5.0,98,99.99,,,-99.99,,2013-01-25 07:02:00,
2013-01-25 02:11:00,52.0,51.0,30.29,North,0,0.0,0.0,98,99.99,,,-99.99,,2013-01-25 07:11:00,
2013-01-25 02:21:00,52.0,51.0,30.29,North,0,0.0,0.0,98,99.99,,,-99.99,,2013-01-25 07:21:00,
2013-01-25 02:32:00,52.0,51.0,30.28,North,0,0.0,0.0,98,99.99,,,-99.99,,2013-01-25 07:32:00,
2013-01-25 02:42:00,52.0,51.0,30.28,North,0,0.0,0.0,98,99.99,,,-99.99,,2013-01-25 07:42:00,
2013-01-25 02:52:00,52.0,51.0,30.28,North,0,0.0,0.0,98,99.99,,,-99.99,,2013-01-25 07:52:00,
2013-01-25 03:02:00,51.0,50.0,30.27,North,0,0.0,0.0,97,99.99,,,-99.99,,2013-01-25 08:02:00,
2013-01-25 03:11:00,50.0,49.0,30.27,North,0,0.0,0.0,97,99.99,,,-99.99,,2013-01-25 08:11:00,
2013-01-25 03:22:00,50.0,49.0,30.27,North,0,0.0,0.0,97,99.99,,,-99.99,,2013-01-25 08:22:00,
2013-01-25 03:32:00,50.0,49.0,30.27,North,0,0.0,0.0,97,99.99,,,-99.99,,2013-01-25 08:32:00,
2013-01-25 03:41:00,50.0,49.0,30.27,North,0,0.0,0.0,97,99.99,,,-99.99,,2013-01-25 08:41:00,
2013-01-25 03:52:00,50.0,49.0,30.27,North,0,0.0,0.0,97,99.99,,,-99.99,,2013-01-25 08:52:00,
2013-01-25 04:02:00,50.0,50.0,30.26,North,0,0.0,0.0,99,99.99,,,-99.99,,2013-01-25 09:02:00,
2013-01-25 04:11:00,50.0,50.0,30.26,North,0,0.0,0.0,99,99.99,,,-99.99,,2013-01-25 09:11:00,
2013-01-25 04:21:00,50.0,50.0,30.26,North,0,0.0,0.0,99,99.99,,,-99.99,,2013-01-25 09:21:00,
2013-01-25 04:32:00,49.0,48.0,30.26,WNW,302,1.0,3.0,98,99.99,,,-99.99,,2013-01-25 09:32:00,
2013-01-25 04:42:00,49.0,48.0,30.26,WNW,302,1.0,3.0,98,99.99,,,-99.99,,2013-01-25 09:42:00,
2013-01-25 04:52:00,49.0,48.0,30.26,WNW,302,1.0,3.0,98,99.99,,,-99.99,,2013-01-25 09:52:00,
2013-01-25 05:02:00,48.0,47.0,30.25,NNW,336,2.0,3.0,98,99.99,,,-99.99,,2013-01-25 10:02:00,
2013-01-25 05:12:00,48.0,47.0,30.25,NNW,336,2.0,3.0,98,99.99,,,-99.99,,2013-01-25 10:12:00,
2013-01-25 05:22:00,48.0,47.0,30.25,NNW,336,2.0,3.0,98,99.99,,,-99.99,,2013-01-25 10:22:00,
2013-01-25 05:32:00,49.0,49.0,30.26,North,7,4.0,5.0,100,99.99,,,-99.99,,2013-01-25 10:32:00,
2013-01-25 05:42:00,49.0,49.0,30.26,North,7,4.0,5.0,100,99.99,,,-99.99,,2013-01-25 10:42:00,
2013-01-25 05:52:00,49.0,49.0,30.26,North,7,4.0,5.0,100,99.99,,,-99.99,,2013-01-25 10:52:00,
2013-01-25 06:03:00,49.0,49.0,30.26,North,7,4.0,5.0,100,99.99,,,-99.99,,2013-01-25 11:03:00,
2013-01-25 06:11:00,49.0,49.0,30.26,North,7,4.0,5.0,100,99.99,,,-99.99,,2013-01-25 11:11:00,
2013-01-25 06:22:00,49.0,49.0,30.28,North,0,0.0,0.0,100,99.99,,,-99.99,,2013-01-25 11:22:00,
2013-01-25 06:33:00,49.0,49.0,30.28,North,0,0.0,0.0,100,99.99,,,-99.99,,2013-01-25 11:33:00,
2013-01-25 06:42:00,49.0,49.0,30.28,North,0,0.0,0.0,100,99.99,,,-99.99,,2013-01-25 11:42:00,
2013-01-25 06:52:00,48.0,48.0,30.28,North,0,0.0,0.0,100,99.99,,,-99.99,,2013-01-25 11:52:00,
2013-01-25 07:02:00,48.0,48.0,30.28,North,0,0.0,0.0,100,99.99,,,-99.99,,2013-01-25 12:02:00,
2013-01-25 07:12:00,48.0,48.0,30.28,North,0,0.0,0.0,100,99.99,,,-99.99,,2013-01-25 12:12:00,
2013-01-25 07:22:00,48.0,48.0,30.28,North,0,0.0,0.0,100,99.99,,,-99.99,,2013-01-25 12:22:00,
2013-01-25 07:32:00,48.0,48.0,30.30,North,0,0.0,0.0,100,99.99,,,-99.99,,2013-01-25 12:32:00,
2013-01-25 07:42:00,48.0,48.0,30.30,North,0,0.0,0.0,100,99.99,,,-99.99,,2013-01-25 12:42:00,
2013-01-25 07:53:00,48.0,48.0,30.29,North,0,0.0,0.0,100,99.99,,,-99.99,,2013-01-25 12:53:00,
2013-01-25 08:03:00,48.0,48.0,30.30,North,0,0.0,0.0,100,99.99,,,-99.99,,2013-01-25 13:03:00,
2013-01-25 08:12:00,48.0,48.0,30.30,North,0,0.0,0.0,100,99.99,,,-99.99,,2013-01-25 13:12:00,
2013-01-25 08:22:00,49.0,49.0,30.30,North,0,0.0,0.0,100,99.99,,,-99.99,,2013-01-25 13:22:00,
2013-01-25 08:33:00,49.0,49.0,30.30,North,0,0.0,0.0,100,99.99,,,-99.99,,2013-01-25 13:33:00,
2013-01-25 08:42:00,49.0,49.0,30.30,North,0,0.0,0.0,100,99.99,,,-99.99,,2013-01-25 13:42:00,
2013-01-25 08:52:00,51.0,51.0,30.31,North,0,0.0,0.0,100,99.99,,,-99.99,,2013-01-25 13:52:00,
2013-01-25 09:03:00,51.0,51.0,30.31,North,0,0.0,0.0,100,99.99,,,-99.99,,2013-01-25 14:03:00,
2013-01-25 09:13:00,51.0,51.0,30.31,North,0,0.0,0.0,100,99.99,,,-99.99,,2013-01-25 14:13:00,
2013-01-25 09:23:00,56.0,56.0,30.31,North,0,0.0,0.0,100,99.99,,,-99.99,,2013-01-25 14:23:00,
2013-01-25 09:33:00,56.0,56.0,30.31,North,0,0.0,0.0,100,99.99,,,-99.99,,2013-01-25 14:33:00,
2013-01-25 09:42:00,56.0,56.0,30.31,North,0,0.0,0.0,100,99.99,,,-99.99,,2013-01-25 14:42:00,
2013-01-25 09:53:00,59.0,59.0,30.31,NNW,339,1.0,4.0,100,99.99,,,-99.99,,2013-01-25 14:53:00,
2013-01-25 10:02:00,60.0,59.0,30.32,North,350,2.0,5.0,95,99.99,,,-99.99,,2013-01-25 15:02:00,
2013-01-25 10:13:00,60.0,59.0,30.32,North,350,2.0,5.0,95,99.99,,,-99.99,,2013-01-25 15:13:00,
2013-01-25 10:22:00,60.0,59.0,30.32,North,350,2.0,5.0,95,99.99,,,-99.99,,2013-01-25 15:22:00,
2013-01-25 10:32:00,64.0,57.0,30.32,NW,319,2.0,4.0,77,99.99,,,-99.99,,2013-01-25 15:32:00,
2013-01-25 10:42:00,64.0,57.0,30.32,NW,319,2.0,4.0,77,99.99,,,-99.99,,2013-01-25 15:42:00,
2013-01-25 10:53:00,66.0,54.0,30.31,North,354,2.0,5.0,66,99.99,,,-99.99,,2013-01-25 15:53:00,
2013-01-25 11:03:00,69.0,54.0,30.30,NE,53,4.0,7.0,59,99.99,,,-99.99,,2013-01-25 16:03:00,
2013-01-25 11:12:00,69.0,54.0,30.30,NE,53,4.0,7.0,59,99.99,,,-99.99,,2013-01-25 16:12:00,
2013-01-25 11:23:00,69.0,53.0,30.30,NE,51,3.0,8.0,56,99.99,,,-99.99,,2013-01-25 16:23:00,
2013-01-25 11:32:00,70.0,52.0,30.30,NE,56,2.0,6.0,52,99.99,,,-99.99,,2013-01-25 16:32:00,
2013-01-25 11:43:00,70.0,52.0,30.30,NE,56,2.0,6.0,52,99.99,,,-99.99,,2013-01-25 16:43:00,
2013-01-25 11:52:00,72.0,51.0,30.29,ENE,60,4.0,7.0,47,99.99,,,-99.99,,2013-01-25 16:52:00,
2013-01-25 12:03:00,72.0,51.0,30.28,North,353,4.0,9.0,48,99.99,,,-99.99,,2013-01-25 17:03:00,
2013-01-25 12:12:00,72.0,51.0,30.28,North,353,4.0,9.0,48,99.99,,,-99.99,,2013-01-25 17:12:00,
2013-01-25 12:22:00,72.0,50.0,30.27,NW,326,1.0,5.0,46,99.99,,,-99.99,,2013-01-25 17:22:00,
2013-01-25 12:33:00,73.0,50.0,30.27,North,349,1.0,7.0,45,99.99,,,-99.99,,2013-01-25 17:33:00,
2013-01-25 12:43:00,73.0,50.0,30.27,North,349,1.0,7.0,45,99.99,,,-99.99,,2013-01-25 17:43:00,
2013-01-25 12:53:00,74.0,50.0,30.25,NNE,15,2.0,6.0,43,99.99,,,-99.99,,2013-01-25 17:53:00,
2013-01-25 13:03:00,74.0,49.0,30.24,SE,129,2.0,5.0,42,99.99,,,-99.99,,2013-01-25 18:03:00,
2013-01-25 13:12:00,74.0,49.0,30.24,SE,129,2.0,5.0,42,99.99,,,-99.99,,2013-01-25 18:12:00,
2013-01-25 13:23:00,75.0,50.0,30.23,NNE,17,1.0,4.0,41,99.99,,,-99.99,,2013-01-25 18:23:00,
2013-01-25 13:33:00,77.0,51.0,30.23,North,0,0.0,0.0,40,99.99,,,-99.99,,2013-01-25 18:33:00,
2013-01-25 13:42:00,77.0,51.0,30.23,North,0,0.0,0.0,40,99.99,,,-99.99,,2013-01-25 18:42:00,
2013-01-25 13:52:00,78.0,50.0,30.22,SSW,197,0.0,3.0,38,99.99,,,-99.99,,2013-01-25 18:52:00,
2013-01-25 14:03:00,76.0,50.0,30.22,West,277,1.0,6.0,40,99.99,,,-99.99,,2013-01-25 19:03:00,
2013-01-25 14:12:00,76.0,50.0,30.22,West,277,1.0,6.0,40,99.99,,,-99.99,,2013-01-25 19:12:00,
2013-01-25 14:22:00,74.0,50.0,30.21,NNW,339,5.0,10.0,43,99.99,,,-99.99,,2013-01-25 19:22:00,
2013-01-25 14:32:00,74.0,51.0,30.21,NNE,13,4.0,7.0,44,99.99,,,-99.99,,2013-01-25 19:32:00,
2013-01-25 14:42:00,74.0,51.0,30.21,NNE,13,4.0,7.0,44,99.99,,,-99.99,,2013-01-25 19:42:00,
2013-01-25 14:53:00,76.0,51.0,30.20,North,10,0.0,3.0,42,99.99,,,-99.99,,2013-01-25 19:53:00,
2013-01-25 15:03:00,75.0,51.0,30.20,WSW,256,1.0,4.0,43,99.99,,,-99.99,,2013-01-25 20:03:00,
2013-01-25 15:12:00,75.0,51.0,30.20,WSW,256,1.0,4.0,43,99.99,,,-99.99,,2013-01-25 20:12:00,
2013-01-25 15:22:00,75.0,52.0,30.19,East,98,1.0,4.0,44,99.99,,,-99.99,,2013-01-25 20:22:00,
2013-01-25 15:32:00,76.0,51.0,30.19,NE,51,2.0,5.0,42,99.99,,,-99.99,,2013-01-25 20:32:00,
2013-01-25 15:43:00,76.0,51.0,30.19,NE,51,2.0,5.0,42,99.99,,,-99.99,,2013-01-25 20:43:00,
2013-01-25 15:53:00,76.0,51.0,30.19,North,0,0.0,0.0,42,99.99,,,-99.99,,2013-01-25 20:53:00,
2013-01-25 16:02:00,76.0,50.0,30.19,SW,222,6.0,9.0,40,99.99,,,-99.99,,2013-01-25 21:02:00,
2013-01-25 16:12:00,76.0,50.0,30.19,SW,222,6.0,9.0,40,99.99,,,-99.99,,2013-01-25 21:12:00,
2013-01-25 16:23:00,76.0,50.0,30.18,SW,225,2.0,6.0,40,99.99,,,-99.99,,2013-01-25 21:23:00,
2013-01-25 16:33:00,76.0,50.0,30.18,SW,226,4.0,10.0,40,99.99,,,-99.99,,2013-01-25 21:33:00,
2013-01-25 16:42:00,76.0,50.0,30.18,SW,226,4.0,10.0,40,99.99,,,-99.99,,2013-01-25 21:42:00,
2013-01-25 16:52:00,76.0,51.0,30.18,West,281,2.0,5.0,41,99.99,,,-99.99,,2013-01-25 21:52:00,
2013-01-25 17:03:00,75.0,50.0,30.19,WSW,245,4.0,7.0,41,99.99,,,-99.99,,2013-01-25 22:03:00,
2013-01-25 17:12:00,75.0,50.0,30.18,SW,229,5.0,8.0,42,99.99,,,-99.99,,2013-01-25 22:12:00,
2013-01-25 17:22:00,75.0,50.0,30.18,SW,229,5.0,8.0,42,99.99,,,-99.99,,2013-01-25 22:22:00,
2013-01-25 17:33:00,74.0,51.0,30.18,SW,231,6.0,9.0,44,99.99,,,-99.99,,2013-01-25 22:33:00,
2013-01-25 17:42:00,74.0,51.0,30.18,SW,231,6.0,9.0,44,99.99,,,-99.99,,2013-01-25 22:42:00,
2013-01-25 17:53:00,73.0,50.0,30.18,SSW,205,3.0,5.0,45,99.99,,,-99.99,,2013-01-25 22:53:00,
2013-01-25 18:02:00,72.0,51.0,30.19,North,0,0.0,0.0,47,99.99,,,-99.99,,2013-01-25 23:02:00,
2013-01-25 18:12:00,72.0,51.0,30.19,North,0,0.0,0.0,47,99.99,,,-99.99,,2013-01-25 23:12:00,
2013-01-25 18:22:00,71.0,51.0,30.19,North,0,0.0,0.0,49,99.99,,,-99.99,,2013-01-25 23:22:00,
2013-01-25 18:32:00,68.0,51.0,30.20,North,0,0.0,0.0,55,99.99,,,-99.99,,2013-01-25 23:32:00,
2013-01-25 18:42:00,68.0,51.0,30.20,North,0,0.0,0.0,55,99.99,,,-99.99,,2013-01-25 23:42:00,
2013-01-25 18:52:00,67.0,51.0,30.20,North,0,0.0,0.0,57,99.99,,,-99.99,,2013-01-25 23:52:00,
2013-01-25 19:02:00,65.0,51.0,30.20,North,0,0.0,0.0,61,99.99,,,-99.99,,2013-01-26 00:02:00,
2013-01-25 19:11:00,65.0,51.0,30.20,North,0,0.0,0.0,61,99.99,,,-99.99,,2013-01-26 00:11:00,
2013-01-25 19:22:00,63.0,51.0,30.21,North,0,0.0,0.0,64,99.99,,,-99.99,,2013-01-26 00:22:00,
2013-01-25 19:32:00,61.0,51.0,30.20,South,188,2.0,3.0,69,99.99,,,-99.99,,2013-01-26 00:32:00,
2013-01-25 19:42:00,61.0,51.0,30.20,South,188,2.0,3.0,69,99.99,,,-99.99,,2013-01-26 00:42:00,
2013-01-25 19:52:00,60.0,51.0,30.20,SSW,203,3.0,4.0,73,99.99,,,-99.99,,2013-01-26 00:52:00,
2013-01-25 20:02:00,59.0,51.0,30.21,SSW,211,3.0,5.0,74,99.99,,,-99.99,,2013-01-26 01:02:00,
2013-01-25 20:11:00,59.0,51.0,30.21,SSW,211,3.0,5.0,74,99.99,,,-99.99,,2013-01-26 01:11:00,
2013-01-25 20:22:00,59.0,51.0,30.21,SSW,205,1.0,2.0,76,99.99,,,-99.99,,2013-01-26 01:22:00,
2013-01-25 20:32:00,58.0,50.0,30.21,North,0,0.0,0.0,76,99.99,,,-99.99,,2013-01-26 01:32:00,
2013-01-25 20:42:00,58.0,50.0,30.21,North,0,0.0,0.0,76,99.99,,,-99.99,,2013-01-26 01:42:00,
2013-01-25 20:52:00,58.0,50.0,30.21,WSW,253,2.0,4.0,76,99.99,,,-99.99,,2013-01-26 01:52:00,
2013-01-25 21:01:00,58.0,50.0,30.22,West,271,6.0,9.0,75,99.99,,,-99.99,,2013-01-26 02:01:00,
2013-01-25 21:11:00,58.0,50.0,30.22,West,271,6.0,9.0,75,99.99,,,-99.99,,2013-01-26 02:11:00,
2013-01-25 21:22:00,58.0,50.0,30.22,West,271,6.0,9.0,75,99.99,,,-99.99,,2013-01-26 02:22:00,
2013-01-25 21:32:00,61.0,51.0,30.22,NW,314,4.0,5.0,69,99.99,,,-99.99,,2013-01-26 02:32:00,
2013-01-25 21:42:00,61.0,51.0,30.22,NW,314,4.0,5.0,69,99.99,,,-99.99,,2013-01-26 02:42:00,
2013-01-25 21:52:00,60.0,50.0,30.22,NNW,338,4.0,7.0,70,99.99,,,-99.99,,2013-01-26 02:52:00,
2013-01-25 22:02:00,61.0,52.0,30.22,NW,316,4.0,6.0,71,99.99,,,-99.99,,2013-01-26 03:02:00,
2013-01-25 22:11:00,61.0,52.0,30.22,NW,316,4.0,6.0,71,99.99,,,-99.99,,2013-01-26 03:11:00,
2013-01-25 22:22:00,60.0,51.0,30.22,NW,311,3.0,5.0,71,99.99,,,-99.99,,2013-01-26 03:22:00,
2013-01-25 22:32:00,59.0,50.0,30.22,North,0,0.0,0.0,72,99.99,,,-99.99,,2013-01-26 03:32:00,
2013-01-25 22:43:00,59.0,50.0,30.22,North,0,0.0,0.0,72,99.99,,,-99.99,,2013-01-26 03:43:00,
2013-01-25 22:52:00,58.0,50.0,30.22,North,0,0.0,0.0,75,99.99,,,-99.99,,2013-01-26 03:52:00,
2013-01-25 23:02:00,55.0,49.0,30.23,SE,128,1.0,5.0,79,99.99,,,-99.99,,2013-01-26 04:02:00,
2013-01-25 23:12:00,55.0,49.0,30.23,SE,128,1.0,5.0,79,99.99,,,-99.99,,2013-01-26 04:12:00,
2013-01-25 23:21:00,55.0,49.0,30.23,ESE,117,0.0,1.0,80,99.99,,,-99.99,,2013-01-26 04:21:00,
2013-01-25 23:32:00,54.0,48.0,30.23,North,0,0.0,0.0,79,99.99,,,-99.99,,2013-01-26 04:32:00,
2013-01-25 23:42:00,54.0,48.0,30.23,North,0,0.0,0.0,79,99.99,,,-99.99,,2013-01-26 04:42:00,
2013-01-25 23:52:00,53.0,47.0,30.23,SSE,162,0.0,3.0,81,99.99,,,-99.99,,2013-01-26 04:52:00,